Location: San Martino di Castrozza
(46.2667°N, 11.8000°E)
Time: 02:50:46
(UTC+00:00)

NOSS 3-3 (C) - Pass Details

Date: 23 April 2021
Orbit: 810 x 1402 km, 63.4° (Epoch: 14 May)

Event Time Altitude Azimuth Distance (km) Brightness Sun altitude
Exits shadow 00:35:05 84° 170° (S) 935 3.7 -28.2°
Maximum altitude 00:35:15 85° 127° (SE) 935 3.7 -28.2°
Drops below altitude 10° 00:41:50 10° 40° (NE) 2,835 7.3 -27.8°
Sets 00:44:39 0° 40° (NE) 3,884 8.3 -27.5°
